カタログに戻る

DELTA 4 R/B

運用中MEO
NORAD 36586·ROCKET BODY·🇺🇸 United States

打ち上げ May 28, 2010 から Cape Canaveral Space Force Station

Loading…

次のパス (今後24時間)

TLE

経年Source: Space-Track

元期: Aug 29, 2026, 04:17 UTC

1 36586U 10022B   26241.17916388  .00000048  00000-0  00000+0 0  9992
2 36586  53.7659 228.0846 0212581 166.7947 294.0669  1.90940443113379

AllMySatでDELTA 4 R/Bをリアルタイム追跡

Download on the App Store